ARIANE 1 DEB

Satellite information

Favourite Embed

Satellite Type and Status

DEBRISIN ORBIT

Key statistics

Satellite ARIANE 1 DEB at a glance.

Uptime

14490

Days in orbit

Revolutions

≈ 14.4

Per day

Orbit

SSO

Sun Synchronous Orbit

Inclination

98.3

Latest

Satellite identification and parameters

Extended collection of information and parameters for ARIANE 1 DEB.

Object identification

Identified? True

Debris? True

Object name: ARIANE 1 DEB

International designator: 1986-019R

Object number (NORAD): 17121

Object ID (CCSDS): 17121

Country: FRANCE (FR)

Current information (Y/N): Y

RCS size: MEDIUM

Orbital parameters

Period: 100.338 minutes

Inclination: 98.2822 deg

SMA: 7152.722 km

Apoapsis: 814.309 km

Periapsis: 734.864 km

RAAN: 293.06 deg

Eccentricy: 0.00555347

Argument of periapsis: 51.1309 deg

Mean anomaly: 7.294 deg

Mean motion: 14.35144956 rev/day

Mean motion (dot): 0.00001882 rev/day2

B* drag term: 0.00066181422 1/REarth

Two-line elements (TLE)

Creation date: Oct. 25, 2025, 3:11 a.m.

Reference frame: TEME

Reference center: EARTH

Epoch: Oct. 24, 2025, 11:46 p.m. UTC

TLE line 0: 0 ARIANE 1 DEB

TLE line 1: 1 17121U 86019R 25297.99039565 .00001882 00000-0 66181-3 0 9991

TLE line 2: 2 17121 98.2822 293.0600 0055535 51.1309 7.2940 14.35144956 23893

Live tracking on map

Real-time ground track for satellite ARIANE 1 DEB.

In-orbit conjunctions

A list of the most updated potential collisions computed for object ARIANE 1 DEB.

Target Orbit TCA Probability of collision Miss distance Type
SL-16 DEB LEO 2025-07-27 20:45:28 0.0001669925 374.0 (m) DEBRIS
NOAA 16 DEB SSO 2025-07-21 05:31:23 0.0001061196 259.0 (m) DEBRIS

Associated space launch

SPOT 1 is a French Earth observation satellite. Viking is Sweden's first satellite.

ARIANE 1 DEB was lifted into orbit during the mission ‘Ariane 1 | SPOT 1 & Viking’, on board a Ariane 1 space rocket.

The launch took place on Feb. 22, 1986, 1:44 a.m. from Ariane Launch Area 1 (ELV).

For more information about the launch, click the button.

Launch to space Ariane 1 | SPOT 1 & Viking
Ariane 1 | SPOT 1 & Viking

Agency: N/A

Status: Launch Successful

Launch date: Feb. 22, 1986, 1:44 a.m. UTC

Rocket: Ariane 1

Launch pad: Ariane Launch Area 1 (ELV)

Location: Guiana Space Centre, French Guiana

...

Latest news about this satellite

There are no fresh news available about this satellite. Check back as we update our databases every day.


Newsletter sign-up

Weekly statistics, charts and insights to help you stay on top of the space industry.